sat.trackr.live / text

‹ back to catalog

ONEWEB-0171

NORAD 48070 · 2021-025AE

PAYLOAD ACTIVE UNKNOWN

§ Identity

Operator
Country
UK
Launch date
2021-03-25
Launch site
VOSTO
Launch vehicle
Mass (kg)
RCS (m²)

Purposes: comms

External: N2YO · Heavens-Above · Gunter

§ Orbital elements

Epoch: 2026-05-25T00:18:12.257568Z

Period
109.63 min
Inclination
87.8940°
Eccentricity
0.0001707
Mean motion
13.13469263 rev/d
Perigee alt
1,208.5 km
Apogee alt
1,211.1 km
Semi-major
7,587.9 km
B*
5.7555e-4
RAAN
324.8476°
Arg perigee
89.6098°
Mean anomaly
270.5226°
Rev number
25,057

§ Raw data

ONEWEB-01711 48070U 21025AE  26145.01264187  .00000223  00000+0  57555-3 0  99922 48070  87.8940 324.8476 0001707  89.6098 270.5226 13.13469263250577

JSON: /api/v1/satellites/48070 · /tle

For live sub-satellite position, see the globe view (requires WebGL).

§ Visibility from observer

Set your observer location to see the next 7 days of passes ≥ 10°. The values pass through the URL so the page stays shareable.

No JS? Fill the form by hand. The geolocation button needs JavaScript.